Starlink 4787

operational
NORAD ID: 53904 Int'l Des: 2022-119 Owner: SPXS Country: US Constellation: starlink
LEOCIRCULAR

关于 Starlink 4787

正在加载描述...

实时位置

正在加载3D地球...

即将过境

高度历史

Altitude vs Time

uPlot chart will show altitude changes over time

两行轨道根数

1 53904U 22119U 25351.24345366 -.00000466 00000-0 -11190-4 0 9999
2 53904 53.2189 333.8366 0001602 81.6444 278.4730 15.08836242179242
Epoch: Dec 17, 2025 • Age: 10 hours

当前状态

高度 539.8 km
速度 7.60 km/s
星下点 17.92°N, 170.33°E
发射日期 Sep 24, 2022
运行时间 3.2 years
类型 internet

技术详情

分类 Payload
质量 305.00 kg
干质量 290.00 kg
总质量 305.00 kg
长度 0.20 m
直径 2.80 m
跨度 9.00 m
形状 Box + pan
制造商 SPXS
平台类型 Starlink
阶段状态 In Orbit
所有者/国家 SPXS/US

大型星座

Loading constellations...